DW9727 Weather Reports


Display with metric or nautical units.
time (UTC)temp
F
wind
direction
speed
MPH
gust
MPH
rain 1hr
in
rain 24hr
in
rain mn
in
humidity
%
barometer
mb
20260503024710 61 192 7.0 14.0 0.00 0.00 0.00 36 1012.8
20260503023710 61 176 5.0 9.0 0.00 0.00 0.00 36 1012.8
20260503022710 62 186 6.0 9.0 0.00 0.00 0.00 35 1012.7
20260503021711 62 190 5.0 9.0 0.00 0.00 0.00 35 1012.8
20260503020711 62 190 4.0 8.0 0.00 0.00 0.00 34 1012.8
20260503015710 63 193 5.0 8.0 0.00 0.00 0.00 34 1012.9
20260503014710 63 199 5.0 8.0 0.00 0.00 0.00 34 1013.0
20260503013710 64 195 6.0 8.0 0.00 0.00 0.00 34 1013.1
20260503012710 65 197 5.0 9.0 0.00 0.00 0.00 32 1013.2
20260503011710 66 187 3.0 6.0 0.00 0.00 0.00 31 1013.3
20260503010711 67 178 3.0 7.0 0.00 0.00 0.00 30 1013.6
20260503005710 68 207 5.0 7.0 0.00 0.00 0.00 28 1013.7
20260503004711 69 224 7.0 9.0 0.00 0.00 0.00 27 1013.9
20260503003710 69 218 7.0 16.0 0.00 0.00 0.00 27 1013.9
20260503002710 69 226 9.0 12.0 0.00 0.00 0.00 26 1014.1
20260503001710 69 226 8.0 14.0 0.00 0.00 0.00 26 1014.3
20260502234710 70 255 8.0 17.0 0.00 0.00 0.00 25 1014.6
20260502233711 70 216 10.0 23.0 0.00 0.00 0.00 25 1014.8
20260502232711 70 219 11.0 15.0 0.00 0.00 0.00 24 1014.9
20260502231710 70 243 9.0 18.0 0.00 0.00 0.00 25 1015.0
20260502230710 70 221 14.0 24.0 0.00 0.00 0.00 24 1015.1
20260502225710 70 189 11.0 18.0 0.00 0.00 0.00 25 1015.0
20260502224710 70 232 10.0 17.0 0.00 0.00 0.00 27 1015.2
20260502223710 70 249 7.0 18.0 0.00 0.00 0.00 27 1015.3
20260502222711 70 254 9.0 16.0 0.00 0.00 0.00 28 1015.5
20260502221710 70 236 7.0 12.0 0.00 0.00 0.00 27 1015.6
20260502220711 70 275 8.0 12.0 0.00 0.00 0.00 26 1015.8
20260502214711 69 229 9.0 16.0 0.00 0.00 0.00 25 1016.3
20260502213710 69 222 6.0 14.0 0.00 0.00 0.00 26 1016.3
20260502212710 69 267 10.0 20.0 0.00 0.00 0.00 26 1016.6
20260502211711 69 249 6.0 14.0 0.00 0.00 0.00 27 1016.8
20260502210710 69 250 3.0 12.0 0.00 0.00 0.00 32 1017.1
20260502205710 69 257 12.0 20.0 0.00 0.00 0.00 29 1017.2
20260502203710 69 294 9.0 13.0 0.00 0.00 0.00 31 1017.5
20260502202710 68 247 9.0 20.0 0.00 0.00 0.00 28 1017.7
20260502201710 68 266 6.0 15.0 0.00 0.00 0.00 32 1018.0
20260502192710 66 306 7.0 12.0 0.00 0.00 0.00 34 1018.7
20260502191711 66 154 4.0 15.0 0.00 0.00 0.00 31 1018.7
20260502190710 65 232 3.0 12.0 0.00 0.00 0.00 32 1018.8
20260502185711 65 312 5.0 10.0 0.00 0.00 0.00 33 1019.1
20260502184711 65 319 5.0 14.0 0.00 0.00 0.00 35 1019.3
20260502183710 64 246 8.0 14.0 0.00 0.00 0.00 34 1019.3
20260502181710 64 227 6.0 12.0 0.00 0.00 0.00 33 1019.7
20260502180710 64 285 8.0 14.0 0.00 0.00 0.00 40 1020.0
20260502163711 60 219 6.0 14.0 0.00 0.00 0.00 39 1021.3
20260502162710 60 220 6.0 12.0 0.00 0.00 0.00 42 1021.4
20260502161710 59 267 7.0 15.0 0.00 0.00 0.00 42 1021.5
20260502160710 59 249 7.0 12.0 0.00 0.00 0.00 42 1021.7
20260502150711 55 263 5.0 12.0 0.00 0.00 0.00 46 1022.2
20260502130711 36 284 1.0 3.0 0.00 0.00 0.00 83 1022.6
20260502122710 31 263 0.0 1.0 0.00 0.00 0.00 85 1022.6
20260502121710 31 264 1.0 2.0 0.00 0.00 0.00 85 1022.5
20260502120710 31 264 1.0 2.0 0.00 0.00 0.00 84 1022.6
20260502115710 31 264 0.0 2.0 0.00 0.00 0.00 84 1022.4
20260502114710 31 307 0.0 0.0 0.00 0.00 0.00 84 1022.1
20260502113710 31 307 0.0 0.0 0.00 0.00 0.00 84 1022.2
20260502112710 30 308 0.0 1.0 0.00 0.00 0.00 83 1022.2
20260502111710 31 308 1.0 2.0 0.00 0.00 0.00 82 1022.2
20260502110711 31 305 1.0 2.0 0.00 0.00 0.00 82 1022.3
20260502105710 31 292 1.0 3.0 0.00 0.00 0.00 81 1022.3
20260502103711 32 284 0.0 0.0 0.00 0.00 0.00 81 1022.4
20260502102711 32 236 0.0 2.0 0.00 0.00 0.00 80 1022.3
20260502101710 32 236 1.0 2.0 0.00 0.00 0.00 80 1022.4
20260502100710 32 236 0.0 0.0 0.00 0.00 0.00 79 1022.3
20260502090711 33 236 1.0 2.0 0.00 0.00 0.00 79 1022.0
20260502070710 34 307 1.0 2.0 0.00 0.00 0.00 74 1021.8
20260502065710 34 304 1.0 2.0 0.00 0.00 0.00 74 1021.8
20260502064710 35 304 2.0 3.0 0.00 0.00 0.00 73 1021.8
20260502063710 35 304 1.0 2.0 0.00 0.00 0.00 72 1021.9
20260502062710 35 304 2.0 3.0 0.00 0.00 0.00 71 1021.9
20260502061710 36 304 1.0 2.0 0.00 0.00 0.00 71 1021.9
20260502060711 36 304 0.0 0.0 0.00 0.00 0.00 70 1021.8
20260502055711 36 0 0.0 0.0 0.00 0.00 0.00 70 1021.8
20260502051710 38 0 0.0 0.0 0.00 0.00 0.00 67 1021.6
20260502045710 39 0 0.0 0.0 0.00 0.00 0.00 64 1021.5
20260502044711 40 0 0.0 0.0 0.00 0.00 0.00 61 1021.5
20260502043710 40 0 0.0 0.0 0.00 0.00 0.00 62 1021.4
20260502042711 41 0 0.0 0.0 0.00 0.00 0.00 61 1021.4
20260502041710 42 0 0.0 2.0 0.00 0.00 0.00 56 1021.3
20260502040710 42 32 0.0 0.0 0.00 0.00 0.00 55 1021.3
20260502033711 43 21 1.0 3.0 0.00 0.00 0.00 53 1021.1
20260502032710 44 32 0.0 2.0 0.00 0.00 0.00 53 1021.1
20260502031711 44 32 0.0 2.0 0.00 0.00 0.00 52 1021.1
20260502030710 45 34 1.0 3.0 0.00 0.00 0.00 51 1021.0
20260502025712 45 28 1.0 3.0 0.00 0.00 0.00 50 1020.9